Location: Paderno d�Adda
(45.6667°N, 9.4333°E)
Time: 14:28:03
(UTC+00:00)

Okean 1 Rocket - Pass Details

Date: 19 September 2020
Orbit: 605 x 635 km, 82.5° (Epoch: 29 October)

Event Time Altitude Azimuth Distance (km) Brightness Sun altitude
Exits shadow 20:08:17 45° 253° (WSW) 876 4.0 -27.7°
Maximum altitude 20:08:58 49° 283° (WNW) 826 3.9 -27.8°
Drops below altitude 10° 20:13:21 10° 358° (N) 2,033 6.1 -28.4°
Sets 20:15:40 0° 4° (N) 2,946 6.9 -28.7°
